Regional Weather Roundup
Issued by NWS

Home | Current Version | Previous Version | Text Only | Print | Product List | Glossary Off
Versions: 1 2 3 4 5 6 7 8 9 10 11 12 13 14 15 16 17 18 19 20 21 22 23 24 25 26 27 28 29 30 31 32 33 34 35 36 37 38 39 40 41 42 43 44 45 46 47 48 49 50

000
ASUS43 KMPX 200201
RWRMN
WEATHER ROUNDUP FOR MINNESOTA
NATIONAL WEATHER SERVICE TWIN CITIES/CHANHASSEN MN
900 PM CDT FRI SEP 19 2014


NOTE: "FAIR" INDICATES FEW OR NO CLOUDS BELOW 12,000 FEET WITH NO
SIGNIFICANT WEATHER AND/OR OBSTRUCTIONS TO VISIBILITY. N/A MEANS
CURRENT SKY AND/OR WEATHER CONDITIONS ARE NOT AVAILABLE.

MNZ060>063-068>070-200300-
   Twin Cities Metro

CITY           SKY/WX    TMP DP  RH WIND       PRES   REMARKS
TWIN CITIES    LGT RAIN  71  64  78 S3        29.67S
ST PAUL        MOCLDY    69  64  84 SE3       29.67F
CRYSTAL        CLOUDY    68  64  87 CALM      29.65R
BLAINE         MOCLDY    66  66 100 CALM      29.66S
LAKEVILLE      CLOUDY    75  66  73 W5        29.69R
EDEN PRAIRIE   LGT RAIN  70  65  84 S3        29.67R
SOUTH ST PAUL  CLOUDY    71  64  79 CALM      29.67S
LAKE ELMO      MOCLDY    68  64  88 S3        29.68S
$$
MNZ001>005-007-008-013>017-022>024-027-028-200300-
   Northwest Minnesota

CITY           SKY/WX    TMP DP  RH WIND       PRES   REMARKS
BEMIDJI        PTCLDY    62  61  97 S5        29.60R
HALLOCK        PTCLDY    63  59  88 N15G22    29.59R
ROSEAU         CLOUDY    61  55  82 N6        29.56F
WARROAD        TSTM      61  55  82 N16G37    29.55R
THIEF RVR FALL PTCLDY    68  61  77 W14       29.56R
CROOKSTON      CLEAR     70  57  64 NW16      29.57R
FOSSTON        PTCLDY    64  63  94 S13       29.57S
DETROIT LAKES  MOCLDY    68  64  88 SW10      29.62F
MOORHEAD       MOCLDY    72  68  88 SW7       29.60R
PARK RAPIDS    PTCLDY    63  62  97 S6        29.62S
MAHNOMEN       FAIR      67  64  91 S13       29.58S
$$
MNZ006-009>011-018-025>026-200300-
   North Central Minnesota

CITY           SKY/WX    TMP DP  RH WIND       PRES   REMARKS
BAUDETTE       CLOUDY    63  62  97 SE7       29.51F
FLAG ISLAND    CLOUDY    61  61 100 N5        29.54R VSB 1/2
INTL FALLS     CLOUDY    63  61  93 VRB3      29.58R
WASKISH        PTCLDY    64  63  94 CALM      29.55F
BIG FORK       CLOUDY    63  61  94 S9        29.61S FOG
LONGVILLE      CLOUDY    63  63 100 S5        29.63S
GRAND RAPIDS   CLOUDY    63  59  88 S6        29.64S
CRANE LAKE     CLOUDY    61  59  94 CALM      29.62S
ORR            CLOUDY    61  57  88 S3        29.59S
COOK           CLOUDY    61  61 100 S6        29.62F FOG
WALKER         FAIR      64  62  94 SW7       29.61S
$$
MNZ012-019>021-037-200300-
   Northeast Minnesota

CITY           SKY/WX    TMP DP  RH WIND       PRES   REMARKS
DULUTH         CLOUDY    64  61  90 W9        29.64S FOG
ELY            CLOUDY    61  57  88 SW6       29.63S FOG
HIBBING        CLOUDY    62  60  93 S3        29.64S FOG
EVELETH        CLOUDY    61  59  94 SW5       29.65S FOG
DULUTH HARBOR  PTCLDY    61  59  94 SW6       29.65R FOG
TWO HARBORS    CLOUDY    63  57  82 SW3       29.62S
SILVER BAY     PTCLDY    61  61 100 SW3       29.62S
GRAND MARAIS     N/A     53  52  96 CALM      29.61F
G MARAIS ARPRT CLOUDY    57  55  94 SW5       29.65S FOG
$$
MNZ029>031-032-039>041-046>048-054>057-064-200300-
   West Central Minnesota

CITY           SKY/WX    TMP DP  RH WIND       PRES   REMARKS
FERGUS FALLS   PTCLDY    66  64  94 S9        29.63S
WHEATON        CLEAR     66  63  88 SW8       29.67R
MORRIS         CLEAR     64  63  94 S5        29.66S FOG
ALEXANDRIA     CLEAR     67  64  90 SW9       29.68R
ELBOW LAKE     FAIR      64  63  97 S8        29.65S
WADENA         PTCLDY    61  61 100 S6        29.64S FOG
GLENWOOD       CLEAR     64  64 100 SW7       29.68S
APPLETON       CLEAR     70  64  83 SW6       29.67R
BENSON           N/A     64  63  94 SW5       29.68R FOG
ORTONVILLE     CLEAR     70  61  73 CALM      29.68R
MADISON        PTCLDY    70  64  83 CALM      29.69R
WILLMAR        FAIR      68  64  88 W5        29.70R
$$
MNZ033>034-036-042>043-049>051-058-059-200300-
   Central Minnesota

CITY           SKY/WX    TMP DP  RH WIND       PRES   REMARKS
ST CLOUD       FOG       63  61  93 CALM      29.66R VSB 3/4
SAUK CENTRE    FAIR      62  61  98 S3        29.67S FOG
PAYNESVILLE    PTCLDY    61  61 100 S3        29.68R FOG
AITKIN         CLOUDY    64  61  88 CALM      29.64S HAZE
PINE RIVER     PTCLDY    63  63 100 CALM      29.68S FOG
BRAINERD       CLOUDY    62  62 100 SW8       29.66R FOG
STAPLES        CLEAR     61  61 100 S5        29.65R FOG
LONG PRAIRIE   FAIR      61  61 100 S5        29.67S FOG
LITTLE FALLS   FOG       61  59  94 CALM      29.66S VSB 3/4
LITCHFIELD     MOCLDY    64  64 100 CALM      29.69R FOG
BUFFALO        MOCLDY    65  63  91 CALM      29.68S FOG
MAPLE LAKE       N/A     63  62  96 CALM      29.68S FOG
$$
MNZ037-044-045-052-053-200300-
   East Central Minnesota

CITY           SKY/WX    TMP DP  RH WIND       PRES   REMARKS
PRINCETON      MOCLDY    63  63 100 CALM      29.67R
MORA           PTCLDY    61  59  94 CALM      29.67S FOG
CAMBRIDGE      MOCLDY    64  57  77 CALM      29.65R HAZE
RUSH CITY      MOCLDY    62  60  94 CALM      29.66S
MOOSE LAKE     FOG       59  57  94 CALM      29.64S VSB<1/4
HINCKLEY       FAIR      61  61 100 CALM      29.65S FOG
CLOQUET        PTCLDY    61  59  94 CALM      29.65S FOG
MCGREGOR       CLOUDY    63  61  94 CALM      29.65S
$$
MNZ071>073-080-081-089-090-097-098-200300-
   Southwest Minnesota

CITY           SKY/WX    TMP DP  RH WIND       PRES   REMARKS
MONTEVIDEO     PTCLDY    70  63  78 CALM      29.70R
GRANITE FALLS  PTCLDY    69  65  89 W7        29.71R
CANBY          MOCLDY    72  66  81 W3        29.71R
MARSHALL       MOCLDY    72  66  83 W3        29.70R
REDWOOD FALLS  MOCLDY    74  67  78 NW5       29.69R
OLIVIA         MOCLDY    70  64  83 W6        29.69R
PIPESTONE      LGT RAIN  75  63  64 NW8       29.76R
WINDOM         PTCLDY    73  64  73 CALM      29.73R
WORTHINGTON    PTCLDY    73  66  78 W9        29.75R
JACKSON        PTCLDY    75  66  73 S8        29.74R
TRACY          CLOUDY    75  68  77 CALM      29.73R
SLAYTON        CLOUDY    74  65  74 CALM      29.75R
$$
MNZ065>067-074>077-082>085-091>093-200300-
   South Central Minnesota

CITY           SKY/WX    TMP DP  RH WIND       PRES   REMARKS
MANKATO        MOCLDY    79  64  61 SW12G20   29.70R
NEW ULM        LGT RAIN  73  70  88 SW7       29.69S
ST JAMES       PTCLDY    77  68  73 SW7       29.73R
FAIRMONT       PTCLDY    75  59  57 S9        29.73R
GLENCOE        MOCLDY    74  65  74 SW3       29.68R
FARIBAULT      MOCLDY    79  63  57 S10G17    29.71R
OWATONNA         N/A     75  64  69 S14G22    29.72S
WASECA         PTCLDY    73  61  64 S13       29.74R
ALBERT LEA     PTCLDY    73  66  78 S9G17     29.76R
$$
MNZ078>079-086>088-094>096-200300-
   Southeast Minnesota

CITY           SKY/WX    TMP DP  RH WIND       PRES   REMARKS
ROCHESTER      PTCLDY    70  62  76 S20G31    29.76F
RED WING       TSTM      75  64  69 W8        29.69R
STANTON        MOCLDY    77  65  66 S9G20     29.67R
DODGE CENTER   PTCLDY    72  64  78 S18G26    29.74S
WINONA         PTCLDY    72  59  64 S10       29.74F
AUSTIN         PTCLDY    70  63  78 S13       29.77S
PRESTON        CLOUDY    67  64  87 S12       29.80F
$$
ABBREVIATIONS USED IN REMARKS
   TC - TEMPERATURES IN CELSIUS
  WCI - WIND CHILL INDEX
   HX - HEAT INDEX
  VSB - VISIBILITY
$$


USA.gov is the U.S. government's official web portal to all federal, state and local government web resources and services.